Location: ??????
(36.0418°N, 43.6351°E)
Time: 21:39:18
(UTC+00:00)

COSMOS 2428 - Pass Details

Date: 07 March 2021
Orbit: 845 x 858 km, 70.9° (Epoch: 19 April)

Event Time Altitude Azimuth Distance (km) Brightness Sun altitude
Rises 01:54:02 0° 343° (NNW) 3,426 5.8 -19.7°
Reaches altitude 10° 01:56:35 10° 349° (N) 2,489 5.1 -19.2°
Maximum altitude 02:02:08 51° 65° (ENE) 1,070 3.6 -18.1°
Drops below altitude 10° 02:07:40 10° 140° (SE) 2,482 5.6 -17.0°
Sets 02:10:12 0° 146° (SE) 3,416 6.3 -16.5°
